Location: Lewisville
(33.0462°N, 96.9942°W)
Time: 14:41:22
(UTC-06:00)

N. Korean satellite - Pass Details

Date: 08 December 2019
Orbit: 454 x 507 km, 97.2° (Epoch: 21 January)

Event Time Altitude Azimuth Distance (km) Brightness Sun altitude
Rises 06:11:45 0° 12° (NNE) 2,536 10.1 -13.7°
Reaches altitude 10° 06:13:50 10° 13° (NNE) 1,644 9.2 -13.3°
Maximum altitude 06:17:22 84° 101° (E) 475 6.5 -12.6°
Drops below altitude 10° 06:20:49 10° 190° (S) 1,605 9.3 -11.9°
Sets 06:22:50 0° 191° (S) 2,468 10.3 -11.6°
